Index of /20260501/WXO-DD/model_caps/3km/12/043
Name Last modified Size Description
Parent Directory -
20260501T12Z_MSC_CAPS_AbsoluteVorticity_IsbL-0250_RLatLon0.03_PT043H.grib2 2026-05-01 18:27 1.0M
20260501T12Z_MSC_CAPS_AbsoluteVorticity_IsbL-0500_RLatLon0.03_PT043H.grib2 2026-05-01 18:27 1.1M
20260501T12Z_MSC_CAPS_AbsoluteVorticity_IsbL-0700_RLatLon0.03_PT043H.grib2 2026-05-01 18:27 1.1M
20260501T12Z_MSC_CAPS_AbsoluteVorticity_IsbL-0850_RLatLon0.03_PT043H.grib2 2026-05-01 18:27 1.2M
20260501T12Z_MSC_CAPS_AbsoluteVorticity_IsbL-1000_RLatLon0.03_PT043H.grib2 2026-05-01 18:27 1.3M
20260501T12Z_MSC_CAPS_AirDensity_AGL-120m_RLatLon0.03_PT043H.grib2 2026-05-01 18:27 1.4M
20260501T12Z_MSC_CAPS_AirDensity_AGL-40m_RLatLon0.03_PT043H.grib2 2026-05-01 18:27 1.4M
20260501T12Z_MSC_CAPS_AirDensity_AGL-80m_RLatLon0.03_PT043H.grib2 2026-05-01 18:27 1.4M
20260501T12Z_MSC_CAPS_AirTemp_AGL-120m_RLatLon0.03_PT043H.grib2 2026-05-01 18:27 1.7M
20260501T12Z_MSC_CAPS_AirTemp_AGL-2m_RLatLon0.03_PT043H.grib2 2026-05-01 18:27 1.7M
20260501T12Z_MSC_CAPS_AirTemp_AGL-40m_RLatLon0.03_PT043H.grib2 2026-05-01 18:27 1.5M
20260501T12Z_MSC_CAPS_AirTemp_AGL-80m_RLatLon0.03_PT043H.grib2 2026-05-01 18:27 1.8M
20260501T12Z_MSC_CAPS_AirTemp_IsbL-0050_RLatLon0.03_PT043H.grib2 2026-05-01 18:27 693K
20260501T12Z_MSC_CAPS_AirTemp_IsbL-0100_RLatLon0.03_PT043H.grib2 2026-05-01 18:27 972K
20260501T12Z_MSC_CAPS_AirTemp_IsbL-0150_RLatLon0.03_PT043H.grib2 2026-05-01 18:27 752K
20260501T12Z_MSC_CAPS_AirTemp_IsbL-0175_RLatLon0.03_PT043H.grib2 2026-05-01 18:27 769K
20260501T12Z_MSC_CAPS_AirTemp_IsbL-0200_RLatLon0.03_PT043H.grib2 2026-05-01 18:27 784K
20260501T12Z_MSC_CAPS_AirTemp_IsbL-0225_RLatLon0.03_PT043H.grib2 2026-05-01 18:27 785K
20260501T12Z_MSC_CAPS_AirTemp_IsbL-0250_RLatLon0.03_PT043H.grib2 2026-05-01 18:27 1.0M
20260501T12Z_MSC_CAPS_AirTemp_IsbL-0275_RLatLon0.03_PT043H.grib2 2026-05-01 18:27 1.0M
20260501T12Z_MSC_CAPS_AirTemp_IsbL-0300_RLatLon0.03_PT043H.grib2 2026-05-01 18:27 1.0M
20260501T12Z_MSC_CAPS_AirTemp_IsbL-0350_RLatLon0.03_PT043H.grib2 2026-05-01 18:27 748K
20260501T12Z_MSC_CAPS_AirTemp_IsbL-0400_RLatLon0.03_PT043H.grib2 2026-05-01 18:27 754K
20260501T12Z_MSC_CAPS_AirTemp_IsbL-0450_RLatLon0.03_PT043H.grib2 2026-05-01 18:27 777K
20260501T12Z_MSC_CAPS_AirTemp_IsbL-0500_RLatLon0.03_PT043H.grib2 2026-05-01 18:27 950K
20260501T12Z_MSC_CAPS_AirTemp_IsbL-0550_RLatLon0.03_PT043H.grib2 2026-05-01 18:27 961K
20260501T12Z_MSC_CAPS_AirTemp_IsbL-0600_RLatLon0.03_PT043H.grib2 2026-05-01 18:27 1.0M
20260501T12Z_MSC_CAPS_AirTemp_IsbL-0650_RLatLon0.03_PT043H.grib2 2026-05-01 18:27 1.0M
20260501T12Z_MSC_CAPS_AirTemp_IsbL-0700_RLatLon0.03_PT043H.grib2 2026-05-01 18:27 1.0M
20260501T12Z_MSC_CAPS_AirTemp_IsbL-0750_RLatLon0.03_PT043H.grib2 2026-05-01 18:27 1.0M
20260501T12Z_MSC_CAPS_AirTemp_IsbL-0800_RLatLon0.03_PT043H.grib2 2026-05-01 18:27 1.1M
20260501T12Z_MSC_CAPS_AirTemp_IsbL-0850_RLatLon0.03_PT043H.grib2 2026-05-01 18:27 1.1M
20260501T12Z_MSC_CAPS_AirTemp_IsbL-0875_RLatLon0.03_PT043H.grib2 2026-05-01 18:27 1.1M
20260501T12Z_MSC_CAPS_AirTemp_IsbL-0900_RLatLon0.03_PT043H.grib2 2026-05-01 18:27 1.1M
20260501T12Z_MSC_CAPS_AirTemp_IsbL-0925_RLatLon0.03_PT043H.grib2 2026-05-01 18:27 1.1M
20260501T12Z_MSC_CAPS_AirTemp_IsbL-0950_RLatLon0.03_PT043H.grib2 2026-05-01 18:27 1.0M
20260501T12Z_MSC_CAPS_AirTemp_IsbL-0970_RLatLon0.03_PT043H.grib2 2026-05-01 18:27 1.1M
20260501T12Z_MSC_CAPS_AirTemp_IsbL-0985_RLatLon0.03_PT043H.grib2 2026-05-01 18:27 1.1M
20260501T12Z_MSC_CAPS_AirTemp_IsbL-1000_RLatLon0.03_PT043H.grib2 2026-05-01 18:27 1.0M
20260501T12Z_MSC_CAPS_AirTemp_IsbL-1015_RLatLon0.03_PT043H.grib2 2026-05-01 18:27 1.0M
20260501T12Z_MSC_CAPS_Albedo_Sfc_RLatLon0.03_PT043H.grib2 2026-05-01 18:27 2.7M
20260501T12Z_MSC_CAPS_CAPE_Sfc_RLatLon0.03_PT043H.grib2 2026-05-01 18:27 129K
20260501T12Z_MSC_CAPS_CloudWater_EAtm_RLatLon0.03_PT043H.grib2 2026-05-01 18:27 1.5M
20260501T12Z_MSC_CAPS_ConvectivePrecip-Accum_Sfc_RLatLon0.03_PT043H.grib2 2026-05-01 18:27 4.6M
20260501T12Z_MSC_CAPS_DewPointDepression_AGL-120m_RLatLon0.03_PT043H.grib2 2026-05-01 18:27 2.0M
20260501T12Z_MSC_CAPS_DewPointDepression_AGL-2m_RLatLon0.03_PT043H.grib2 2026-05-01 18:27 2.1M
20260501T12Z_MSC_CAPS_DewPointDepression_AGL-40m_RLatLon0.03_PT043H.grib2 2026-05-01 18:27 2.0M
20260501T12Z_MSC_CAPS_DewPointDepression_AGL-80m_RLatLon0.03_PT043H.grib2 2026-05-01 18:27 2.0M
20260501T12Z_MSC_CAPS_DewPointDepression_IsbL-0050_RLatLon0.03_PT043H.grib2 2026-05-01 18:27 13K
20260501T12Z_MSC_CAPS_DewPointDepression_IsbL-0100_RLatLon0.03_PT043H.grib2 2026-05-01 18:27 113K
20260501T12Z_MSC_CAPS_DewPointDepression_IsbL-0150_RLatLon0.03_PT043H.grib2 2026-05-01 18:27 101K
20260501T12Z_MSC_CAPS_DewPointDepression_IsbL-0175_RLatLon0.03_PT043H.grib2 2026-05-01 18:27 254K
20260501T12Z_MSC_CAPS_DewPointDepression_IsbL-0200_RLatLon0.03_PT043H.grib2 2026-05-01 18:27 398K
20260501T12Z_MSC_CAPS_DewPointDepression_IsbL-0225_RLatLon0.03_PT043H.grib2 2026-05-01 18:27 650K
20260501T12Z_MSC_CAPS_DewPointDepression_IsbL-0250_RLatLon0.03_PT043H.grib2 2026-05-01 18:27 859K
20260501T12Z_MSC_CAPS_DewPointDepression_IsbL-0275_RLatLon0.03_PT043H.grib2 2026-05-01 18:27 1.0M
20260501T12Z_MSC_CAPS_DewPointDepression_IsbL-0300_RLatLon0.03_PT043H.grib2 2026-05-01 18:27 1.1M
20260501T12Z_MSC_CAPS_DewPointDepression_IsbL-0350_RLatLon0.03_PT043H.grib2 2026-05-01 18:27 1.1M
20260501T12Z_MSC_CAPS_DewPointDepression_IsbL-0400_RLatLon0.03_PT043H.grib2 2026-05-01 18:27 1.1M
20260501T12Z_MSC_CAPS_DewPointDepression_IsbL-0450_RLatLon0.03_PT043H.grib2 2026-05-01 18:27 1.1M
20260501T12Z_MSC_CAPS_DewPointDepression_IsbL-0500_RLatLon0.03_PT043H.grib2 2026-05-01 18:27 1.2M
20260501T12Z_MSC_CAPS_DewPointDepression_IsbL-0550_RLatLon0.03_PT043H.grib2 2026-05-01 18:27 1.2M
20260501T12Z_MSC_CAPS_DewPointDepression_IsbL-0600_RLatLon0.03_PT043H.grib2 2026-05-01 18:27 1.3M
20260501T12Z_MSC_CAPS_DewPointDepression_IsbL-0650_RLatLon0.03_PT043H.grib2 2026-05-01 18:27 1.3M
20260501T12Z_MSC_CAPS_DewPointDepression_IsbL-0700_RLatLon0.03_PT043H.grib2 2026-05-01 18:27 1.3M
20260501T12Z_MSC_CAPS_DewPointDepression_IsbL-0750_RLatLon0.03_PT043H.grib2 2026-05-01 18:27 1.4M
20260501T12Z_MSC_CAPS_DewPointDepression_IsbL-0800_RLatLon0.03_PT043H.grib2 2026-05-01 18:27 1.4M
20260501T12Z_MSC_CAPS_DewPointDepression_IsbL-0850_RLatLon0.03_PT043H.grib2 2026-05-01 18:27 1.4M
20260501T12Z_MSC_CAPS_DewPointDepression_IsbL-0875_RLatLon0.03_PT043H.grib2 2026-05-01 18:27 1.4M
20260501T12Z_MSC_CAPS_DewPointDepression_IsbL-0900_RLatLon0.03_PT043H.grib2 2026-05-01 18:27 1.4M
20260501T12Z_MSC_CAPS_DewPointDepression_IsbL-0925_RLatLon0.03_PT043H.grib2 2026-05-01 18:27 1.3M
20260501T12Z_MSC_CAPS_DewPointDepression_IsbL-0950_RLatLon0.03_PT043H.grib2 2026-05-01 18:27 1.3M
20260501T12Z_MSC_CAPS_DewPointDepression_IsbL-0970_RLatLon0.03_PT043H.grib2 2026-05-01 18:27 1.3M
20260501T12Z_MSC_CAPS_DewPointDepression_IsbL-0985_RLatLon0.03_PT043H.grib2 2026-05-01 18:27 1.3M
20260501T12Z_MSC_CAPS_DewPointDepression_IsbL-1000_RLatLon0.03_PT043H.grib2 2026-05-01 18:27 1.3M
20260501T12Z_MSC_CAPS_DewPointDepression_IsbL-1015_RLatLon0.03_PT043H.grib2 2026-05-01 18:27 1.3M
20260501T12Z_MSC_CAPS_DewPoint_AGL-120m_RLatLon0.03_PT043H.grib2 2026-05-01 18:27 3.6M
20260501T12Z_MSC_CAPS_DewPoint_AGL-2m_RLatLon0.03_PT043H.grib2 2026-05-01 18:27 1.7M
20260501T12Z_MSC_CAPS_DewPoint_AGL-40m_RLatLon0.03_PT043H.grib2 2026-05-01 18:27 3.6M
20260501T12Z_MSC_CAPS_DewPoint_AGL-80m_RLatLon0.03_PT043H.grib2 2026-05-01 18:27 3.6M
20260501T12Z_MSC_CAPS_DownwardLongwaveRadiationFlux-Accum_Sfc_RLatLon0.03_PT043H.grib2 2026-05-01 18:27 2.1M
20260501T12Z_MSC_CAPS_DownwardShortwaveRadiationFlux-Accum_NTAtm_RLatLon0.03_PT043H.grib2 2026-05-01 18:27 493K
20260501T12Z_MSC_CAPS_DownwardShortwaveRadiationFlux-Accum_Sfc_RLatLon0.03_PT043H.grib2 2026-05-01 18:27 2.9M
20260501T12Z_MSC_CAPS_FreezingRain-Accum_Sfc_RLatLon0.03_PT043H.grib2 2026-05-01 18:27 1.0M
20260501T12Z_MSC_CAPS_GeopotentialHeight_IsbL-0050_RLatLon0.03_PT043H.grib2 2026-05-01 18:27 640K
20260501T12Z_MSC_CAPS_GeopotentialHeight_IsbL-0100_RLatLon0.03_PT043H.grib2 2026-05-01 18:27 768K
20260501T12Z_MSC_CAPS_GeopotentialHeight_IsbL-0150_RLatLon0.03_PT043H.grib2 2026-05-01 18:27 722K
20260501T12Z_MSC_CAPS_GeopotentialHeight_IsbL-0175_RLatLon0.03_PT043H.grib2 2026-05-01 18:27 736K
20260501T12Z_MSC_CAPS_GeopotentialHeight_IsbL-0200_RLatLon0.03_PT043H.grib2 2026-05-01 18:27 746K
20260501T12Z_MSC_CAPS_GeopotentialHeight_IsbL-0225_RLatLon0.03_PT043H.grib2 2026-05-01 18:27 758K
20260501T12Z_MSC_CAPS_GeopotentialHeight_IsbL-0250_RLatLon0.03_PT043H.grib2 2026-05-01 18:27 768K
20260501T12Z_MSC_CAPS_GeopotentialHeight_IsbL-0275_RLatLon0.03_PT043H.grib2 2026-05-01 18:27 777K
20260501T12Z_MSC_CAPS_GeopotentialHeight_IsbL-0300_RLatLon0.03_PT043H.grib2 2026-05-01 18:27 781K
20260501T12Z_MSC_CAPS_GeopotentialHeight_IsbL-0350_RLatLon0.03_PT043H.grib2 2026-05-01 18:27 783K
20260501T12Z_MSC_CAPS_GeopotentialHeight_IsbL-0400_RLatLon0.03_PT043H.grib2 2026-05-01 18:27 780K
20260501T12Z_MSC_CAPS_GeopotentialHeight_IsbL-0450_RLatLon0.03_PT043H.grib2 2026-05-01 18:27 769K
20260501T12Z_MSC_CAPS_GeopotentialHeight_IsbL-0500_RLatLon0.03_PT043H.grib2 2026-05-01 18:27 758K
20260501T12Z_MSC_CAPS_GeopotentialHeight_IsbL-0550_RLatLon0.03_PT043H.grib2 2026-05-01 18:27 747K
20260501T12Z_MSC_CAPS_GeopotentialHeight_IsbL-0600_RLatLon0.03_PT043H.grib2 2026-05-01 18:27 739K
20260501T12Z_MSC_CAPS_GeopotentialHeight_IsbL-0650_RLatLon0.03_PT043H.grib2 2026-05-01 18:27 635K
20260501T12Z_MSC_CAPS_GeopotentialHeight_IsbL-0700_RLatLon0.03_PT043H.grib2 2026-05-01 18:27 634K
20260501T12Z_MSC_CAPS_GeopotentialHeight_IsbL-0750_RLatLon0.03_PT043H.grib2 2026-05-01 18:27 637K
20260501T12Z_MSC_CAPS_GeopotentialHeight_IsbL-0800_RLatLon0.03_PT043H.grib2 2026-05-01 18:27 639K
20260501T12Z_MSC_CAPS_GeopotentialHeight_IsbL-0850_RLatLon0.03_PT043H.grib2 2026-05-01 18:27 831K
20260501T12Z_MSC_CAPS_GeopotentialHeight_IsbL-0875_RLatLon0.03_PT043H.grib2 2026-05-01 18:27 837K
20260501T12Z_MSC_CAPS_GeopotentialHeight_IsbL-0900_RLatLon0.03_PT043H.grib2 2026-05-01 18:27 844K
20260501T12Z_MSC_CAPS_GeopotentialHeight_IsbL-0925_RLatLon0.03_PT043H.grib2 2026-05-01 18:27 851K
20260501T12Z_MSC_CAPS_GeopotentialHeight_IsbL-0950_RLatLon0.03_PT043H.grib2 2026-05-01 18:27 858K
20260501T12Z_MSC_CAPS_GeopotentialHeight_IsbL-0970_RLatLon0.03_PT043H.grib2 2026-05-01 18:27 868K
20260501T12Z_MSC_CAPS_GeopotentialHeight_IsbL-0985_RLatLon0.03_PT043H.grib2 2026-05-01 18:27 875K
20260501T12Z_MSC_CAPS_GeopotentialHeight_IsbL-1000_RLatLon0.03_PT043H.grib2 2026-05-01 18:27 883K
20260501T12Z_MSC_CAPS_GeopotentialHeight_IsbL-1015_RLatLon0.03_PT043H.grib2 2026-05-01 18:27 893K
20260501T12Z_MSC_CAPS_GeopotentialHeight_Sfc_RLatLon0.03_PT043H.grib2 2026-05-01 18:27 1.0M
20260501T12Z_MSC_CAPS_IcePellets-Accum_Sfc_RLatLon0.03_PT043H.grib2 2026-05-01 18:27 74K
20260501T12Z_MSC_CAPS_LatentHeatNetFlux_Sfc_RLatLon0.03_PT043H.grib2 2026-05-01 18:27 2.2M
20260501T12Z_MSC_CAPS_LiftedIndex-MU-VT_IsbL-0500_RLatLon0.03_PT043H.grib2 2026-05-01 18:27 3.4M
20260501T12Z_MSC_CAPS_MixedLayerThickness_Sfc_RLatLon0.03_PT043H.nc 2026-05-01 18:14 16M
20260501T12Z_MSC_CAPS_NetLongwaveRadiationFlux-Accum_Sfc_RLatLon0.03_PT043H.grib2 2026-05-01 18:27 2.8M
20260501T12Z_MSC_CAPS_NetShortwaveRadiationFlux-Accum_Sfc_RLatLon0.03_PT043H.grib2 2026-05-01 18:27 2.8M
20260501T12Z_MSC_CAPS_PlanetaryBoundaryLayerHeight_Sfc_RLatLon0.03_PT043H.grib2 2026-05-01 18:27 2.9M
20260501T12Z_MSC_CAPS_Precip-Accum_Sfc_RLatLon0.03_PT043H.grib2 2026-05-01 18:27 5.3M
20260501T12Z_MSC_CAPS_PrecipRate_Sfc_RLatLon0.03_PT043H.grib2 2026-05-01 18:27 647K
20260501T12Z_MSC_CAPS_PrecipType-Instant_Sfc_RLatLon0.03_PT043H.grib2 2026-05-01 18:27 2.0M
20260501T12Z_MSC_CAPS_Pressure_MSL_RLatLon0.03_PT043H.grib2 2026-05-01 18:27 918K
20260501T12Z_MSC_CAPS_Pressure_Sfc_RLatLon0.03_PT043H.grib2 2026-05-01 18:27 1.2M
20260501T12Z_MSC_CAPS_RadiativeTemp_Sfc_RLatLon0.03_PT043H.grib2 2026-05-01 18:27 2.1M
20260501T12Z_MSC_CAPS_Rain-Accum_Sfc_RLatLon0.03_PT043H.grib2 2026-05-01 18:27 2.6M
20260501T12Z_MSC_CAPS_RelativeHumidity_AGL-120m_RLatLon0.03_PT043H.grib2 2026-05-01 18:27 2.8M
20260501T12Z_MSC_CAPS_RelativeHumidity_AGL-2m_RLatLon0.03_PT043H.grib2 2026-05-01 18:27 2.9M
20260501T12Z_MSC_CAPS_RelativeHumidity_AGL-40m_RLatLon0.03_PT043H.grib2 2026-05-01 18:27 2.8M
20260501T12Z_MSC_CAPS_RelativeHumidity_AGL-80m_RLatLon0.03_PT043H.grib2 2026-05-01 18:27 2.8M
20260501T12Z_MSC_CAPS_RelativeHumidity_IsbL-0050_RLatLon0.03_PT043H.grib2 2026-05-01 18:27 740K
20260501T12Z_MSC_CAPS_RelativeHumidity_IsbL-0100_RLatLon0.03_PT043H.grib2 2026-05-01 18:27 883K
20260501T12Z_MSC_CAPS_RelativeHumidity_IsbL-0150_RLatLon0.03_PT043H.grib2 2026-05-01 18:27 496K
20260501T12Z_MSC_CAPS_RelativeHumidity_IsbL-0175_RLatLon0.03_PT043H.grib2 2026-05-01 18:27 492K
20260501T12Z_MSC_CAPS_RelativeHumidity_IsbL-0200_RLatLon0.03_PT043H.grib2 2026-05-01 18:27 695K
20260501T12Z_MSC_CAPS_RelativeHumidity_IsbL-0225_RLatLon0.03_PT043H.grib2 2026-05-01 18:27 897K
20260501T12Z_MSC_CAPS_RelativeHumidity_IsbL-0250_RLatLon0.03_PT043H.grib2 2026-05-01 18:27 1.1M
20260501T12Z_MSC_CAPS_RelativeHumidity_IsbL-0275_RLatLon0.03_PT043H.grib2 2026-05-01 18:27 1.4M
20260501T12Z_MSC_CAPS_RelativeHumidity_IsbL-0300_RLatLon0.03_PT043H.grib2 2026-05-01 18:27 1.5M
20260501T12Z_MSC_CAPS_RelativeHumidity_IsbL-0350_RLatLon0.03_PT043H.grib2 2026-05-01 18:27 1.8M
20260501T12Z_MSC_CAPS_RelativeHumidity_IsbL-0400_RLatLon0.03_PT043H.grib2 2026-05-01 18:27 1.9M
20260501T12Z_MSC_CAPS_RelativeHumidity_IsbL-0450_RLatLon0.03_PT043H.grib2 2026-05-01 18:27 2.0M
20260501T12Z_MSC_CAPS_RelativeHumidity_IsbL-0500_RLatLon0.03_PT043H.grib2 2026-05-01 18:27 2.2M
20260501T12Z_MSC_CAPS_RelativeHumidity_IsbL-0550_RLatLon0.03_PT043H.grib2 2026-05-01 18:27 2.2M
20260501T12Z_MSC_CAPS_RelativeHumidity_IsbL-0600_RLatLon0.03_PT043H.grib2 2026-05-01 18:27 2.2M
20260501T12Z_MSC_CAPS_RelativeHumidity_IsbL-0650_RLatLon0.03_PT043H.grib2 2026-05-01 18:27 2.4M
20260501T12Z_MSC_CAPS_RelativeHumidity_IsbL-0700_RLatLon0.03_PT043H.grib2 2026-05-01 18:27 2.4M
20260501T12Z_MSC_CAPS_RelativeHumidity_IsbL-0750_RLatLon0.03_PT043H.grib2 2026-05-01 18:27 2.4M
20260501T12Z_MSC_CAPS_RelativeHumidity_IsbL-0800_RLatLon0.03_PT043H.grib2 2026-05-01 18:27 2.4M
20260501T12Z_MSC_CAPS_RelativeHumidity_IsbL-0850_RLatLon0.03_PT043H.grib2 2026-05-01 18:27 2.5M
20260501T12Z_MSC_CAPS_RelativeHumidity_IsbL-0875_RLatLon0.03_PT043H.grib2 2026-05-01 18:27 2.5M
20260501T12Z_MSC_CAPS_RelativeHumidity_IsbL-0900_RLatLon0.03_PT043H.grib2 2026-05-01 18:27 2.6M
20260501T12Z_MSC_CAPS_RelativeHumidity_IsbL-0925_RLatLon0.03_PT043H.grib2 2026-05-01 18:27 2.6M
20260501T12Z_MSC_CAPS_RelativeHumidity_IsbL-0950_RLatLon0.03_PT043H.grib2 2026-05-01 18:27 2.7M
20260501T12Z_MSC_CAPS_RelativeHumidity_IsbL-0970_RLatLon0.03_PT043H.grib2 2026-05-01 18:27 2.7M
20260501T12Z_MSC_CAPS_RelativeHumidity_IsbL-0985_RLatLon0.03_PT043H.grib2 2026-05-01 18:27 2.8M
20260501T12Z_MSC_CAPS_RelativeHumidity_IsbL-1000_RLatLon0.03_PT043H.grib2 2026-05-01 18:27 2.8M
20260501T12Z_MSC_CAPS_RelativeHumidity_IsbL-1015_RLatLon0.03_PT043H.grib2 2026-05-01 18:27 2.9M
20260501T12Z_MSC_CAPS_Runoff-Accum_Sfc_RLatLon0.03_PT043H.grib2 2026-05-01 18:27 443K
20260501T12Z_MSC_CAPS_SeaIceAreaFraction_Sfc_RLatLon0.03_PT043H.nc 2026-05-01 18:14 15M
20260501T12Z_MSC_CAPS_SeaIceCompressiveStrength_Sfc_RLatLon0.03_PT043H.nc 2026-05-01 18:14 15M
20260501T12Z_MSC_CAPS_SeaIceDivergence_Sfc_RLatLon0.03_PT043H.nc 2026-05-01 18:14 15M
20260501T12Z_MSC_CAPS_SeaIceInternalPressure_Sfc_RLatLon0.03_PT043H.nc 2026-05-01 18:14 15M
20260501T12Z_MSC_CAPS_SeaIceShear_Sfc_RLatLon0.03_PT043H.nc 2026-05-01 18:14 14M
20260501T12Z_MSC_CAPS_SeaIceSnowTemp_Sfc_RLatLon0.03_PT043H.nc 2026-05-01 18:14 15M
20260501T12Z_MSC_CAPS_SeaIceSnowVolume_Sfc_RLatLon0.03_PT043H.nc 2026-05-01 18:14 15M
20260501T12Z_MSC_CAPS_SeaIceVelocityX_Sfc_RLatLon0.03_PT043H.nc 2026-05-01 18:14 15M
20260501T12Z_MSC_CAPS_SeaIceVelocityY_Sfc_RLatLon0.03_PT043H.nc 2026-05-01 18:14 15M
20260501T12Z_MSC_CAPS_SeaIceVolume_Sfc_RLatLon0.03_PT043H.nc 2026-05-01 18:14 15M
20260501T12Z_MSC_CAPS_SeaSurfaceHeight_Sfc_RLatLon0.03_PT043H.nc 2026-05-01 18:14 16M
20260501T12Z_MSC_CAPS_SeaWaterSalinity_DBS-0.5m_RLatLon0.03_PT043H.nc 2026-05-01 18:14 16M
20260501T12Z_MSC_CAPS_SeaWaterSalinity_DBS-all_RLatLon0.03_PT043H.nc 2026-05-01 18:14 107M
20260501T12Z_MSC_CAPS_SeaWaterTemp_DBS-0.5m_RLatLon0.03_PT043H.nc 2026-05-01 18:14 14M
20260501T12Z_MSC_CAPS_SeaWaterTemp_DBS-all_RLatLon0.03_PT043H.nc 2026-05-01 18:14 88M
20260501T12Z_MSC_CAPS_SeaWaterVelocityX_DBS-0.5m_RLatLon0.03_PT043H.nc 2026-05-01 18:14 17M
20260501T12Z_MSC_CAPS_SeaWaterVelocityX_DBS-all_RLatLon0.03_PT043H.nc 2026-05-01 18:14 202M
20260501T12Z_MSC_CAPS_SeaWaterVelocityY_DBS-0.5m_RLatLon0.03_PT043H.nc 2026-05-01 18:14 17M
20260501T12Z_MSC_CAPS_SeaWaterVelocityY_DBS-all_RLatLon0.03_PT043H.nc 2026-05-01 18:14 211M
20260501T12Z_MSC_CAPS_SensibleHeatNetFlux_Sfc_RLatLon0.03_PT043H.grib2 2026-05-01 18:27 2.0M
20260501T12Z_MSC_CAPS_ShowalterIndex_IsbL-0500_RLatLon0.03_PT043H.grib2 2026-05-01 18:27 4.3M
20260501T12Z_MSC_CAPS_Snow-Accum_Sfc_RLatLon0.03_PT043H.grib2 2026-05-01 18:27 4.2M
20260501T12Z_MSC_CAPS_SnowDensity_Sfc_RLatLon0.03_PT043H.grib2 2026-05-01 18:27 1.3M
20260501T12Z_MSC_CAPS_SnowDepthWaterEquivalent_Sfc_RLatLon0.03_PT043H.grib2 2026-05-01 18:27 676K
20260501T12Z_MSC_CAPS_SnowDepth_Sfc_RLatLon0.03_PT043H.grib2 2026-05-01 18:27 1.2M
20260501T12Z_MSC_CAPS_SoilTemp_DBS-0to10cm_RLatLon0.03_PT043H.grib2 2026-05-01 18:27 1.7M
20260501T12Z_MSC_CAPS_SoilTemp_Sfc_RLatLon0.03_PT043H.grib2 2026-05-01 18:27 1.8M
20260501T12Z_MSC_CAPS_SoilVolumetricIceContent_Sfc_RLatLon0.03_PT043H.grib2 2026-05-01 18:27 1.4M
20260501T12Z_MSC_CAPS_SoilVolumetricWaterContent_DBS-0to10cm_RLatLon0.03_PT043H.grib2 2026-05-01 18:27 1.3M
20260501T12Z_MSC_CAPS_SoilVolumetricWaterContent_DBS-0to1cm_RLatLon0.03_PT043H.grib2 2026-05-01 18:27 1.7M
20260501T12Z_MSC_CAPS_SpecificHumidity_AGL-120m_RLatLon0.03_PT043H.grib2 2026-05-01 18:27 1.8M
20260501T12Z_MSC_CAPS_SpecificHumidity_AGL-2m_RLatLon0.03_PT043H.grib2 2026-05-01 18:27 2.1M
20260501T12Z_MSC_CAPS_SpecificHumidity_AGL-40m_RLatLon0.03_PT043H.grib2 2026-05-01 18:27 1.8M
20260501T12Z_MSC_CAPS_SpecificHumidity_AGL-80m_RLatLon0.03_PT043H.grib2 2026-05-01 18:27 1.8M
20260501T12Z_MSC_CAPS_SpecificHumidity_IsbL-0050_RLatLon0.03_PT043H.grib2 2026-05-01 18:27 925K
20260501T12Z_MSC_CAPS_SpecificHumidity_IsbL-0100_RLatLon0.03_PT043H.grib2 2026-05-01 18:27 1.0M
20260501T12Z_MSC_CAPS_SpecificHumidity_IsbL-0150_RLatLon0.03_PT043H.grib2 2026-05-01 18:27 774K
20260501T12Z_MSC_CAPS_SpecificHumidity_IsbL-0175_RLatLon0.03_PT043H.grib2 2026-05-01 18:27 1.0M
20260501T12Z_MSC_CAPS_SpecificHumidity_IsbL-0200_RLatLon0.03_PT043H.grib2 2026-05-01 18:27 1.0M
20260501T12Z_MSC_CAPS_SpecificHumidity_IsbL-0225_RLatLon0.03_PT043H.grib2 2026-05-01 18:27 851K
20260501T12Z_MSC_CAPS_SpecificHumidity_IsbL-0250_RLatLon0.03_PT043H.grib2 2026-05-01 18:27 1.1M
20260501T12Z_MSC_CAPS_SpecificHumidity_IsbL-0275_RLatLon0.03_PT043H.grib2 2026-05-01 18:27 1.1M
20260501T12Z_MSC_CAPS_SpecificHumidity_IsbL-0300_RLatLon0.03_PT043H.grib2 2026-05-01 18:27 1.0M
20260501T12Z_MSC_CAPS_SpecificHumidity_IsbL-0350_RLatLon0.03_PT043H.grib2 2026-05-01 18:27 1.2M
20260501T12Z_MSC_CAPS_SpecificHumidity_IsbL-0400_RLatLon0.03_PT043H.grib2 2026-05-01 18:27 1.1M
20260501T12Z_MSC_CAPS_SpecificHumidity_IsbL-0450_RLatLon0.03_PT043H.grib2 2026-05-01 18:27 1.1M
20260501T12Z_MSC_CAPS_SpecificHumidity_IsbL-0500_RLatLon0.03_PT043H.grib2 2026-05-01 18:27 1.1M
20260501T12Z_MSC_CAPS_SpecificHumidity_IsbL-0550_RLatLon0.03_PT043H.grib2 2026-05-01 18:27 1.3M
20260501T12Z_MSC_CAPS_SpecificHumidity_IsbL-0600_RLatLon0.03_PT043H.grib2 2026-05-01 18:27 1.4M
20260501T12Z_MSC_CAPS_SpecificHumidity_IsbL-0650_RLatLon0.03_PT043H.grib2 2026-05-01 18:27 1.6M
20260501T12Z_MSC_CAPS_SpecificHumidity_IsbL-0700_RLatLon0.03_PT043H.grib2 2026-05-01 18:27 1.7M
20260501T12Z_MSC_CAPS_SpecificHumidity_IsbL-0750_RLatLon0.03_PT043H.grib2 2026-05-01 18:27 1.4M
20260501T12Z_MSC_CAPS_SpecificHumidity_IsbL-0800_RLatLon0.03_PT043H.grib2 2026-05-01 18:27 1.5M
20260501T12Z_MSC_CAPS_SpecificHumidity_IsbL-0850_RLatLon0.03_PT043H.grib2 2026-05-01 18:27 1.7M
20260501T12Z_MSC_CAPS_SpecificHumidity_IsbL-0875_RLatLon0.03_PT043H.grib2 2026-05-01 18:27 1.7M
20260501T12Z_MSC_CAPS_SpecificHumidity_IsbL-0900_RLatLon0.03_PT043H.grib2 2026-05-01 18:27 1.9M
20260501T12Z_MSC_CAPS_SpecificHumidity_IsbL-0925_RLatLon0.03_PT043H.grib2 2026-05-01 18:27 1.9M
20260501T12Z_MSC_CAPS_SpecificHumidity_IsbL-0950_RLatLon0.03_PT043H.grib2 2026-05-01 18:27 1.9M
20260501T12Z_MSC_CAPS_SpecificHumidity_IsbL-0970_RLatLon0.03_PT043H.grib2 2026-05-01 18:27 2.0M
20260501T12Z_MSC_CAPS_SpecificHumidity_IsbL-0985_RLatLon0.03_PT043H.grib2 2026-05-01 18:27 2.0M
20260501T12Z_MSC_CAPS_SpecificHumidity_IsbL-1000_RLatLon0.03_PT043H.grib2 2026-05-01 18:27 2.1M
20260501T12Z_MSC_CAPS_SpecificHumidity_IsbL-1015_RLatLon0.03_PT043H.grib2 2026-05-01 18:27 2.1M
20260501T12Z_MSC_CAPS_SpecificHumidity_Sfc_RLatLon0.03_PT043H.grib2 2026-05-01 18:27 2.0M
20260501T12Z_MSC_CAPS_StormRelativeHelicity_Sfc_RLatLon0.03_PT043H.grib2 2026-05-01 18:27 3.3M
20260501T12Z_MSC_CAPS_Thickness_IsbL-1000to0500_RLatLon0.03_PT043H.grib2 2026-05-01 18:27 477K
20260501T12Z_MSC_CAPS_TotalCloudCover_Sfc_RLatLon0.03_PT043H.grib2 2026-05-01 18:27 3.6M
20260501T12Z_MSC_CAPS_TurboclineDepth_Sfc_RLatLon0.03_PT043H.nc 2026-05-01 18:14 16M
20260501T12Z_MSC_CAPS_UpwardLongwaveRadiationFlux_NTAtm_RLatLon0.03_PT043H.grib2 2026-05-01 18:27 2.9M
20260501T12Z_MSC_CAPS_UpwardShortwaveRadiationFlux_NTAtm_RLatLon0.03_PT043H.grib2 2026-05-01 18:27 1.7M
20260501T12Z_MSC_CAPS_VerticalVelocity_IsbL-0250_RLatLon0.03_PT043H.grib2 2026-05-01 18:27 908K
20260501T12Z_MSC_CAPS_VerticalVelocity_IsbL-0500_RLatLon0.03_PT043H.grib2 2026-05-01 18:27 1.1M
20260501T12Z_MSC_CAPS_VerticalVelocity_IsbL-0700_RLatLon0.03_PT043H.grib2 2026-05-01 18:27 1.2M
20260501T12Z_MSC_CAPS_VerticalVelocity_IsbL-0850_RLatLon0.03_PT043H.grib2 2026-05-01 18:27 1.5M
20260501T12Z_MSC_CAPS_VerticalVelocity_IsbL-1000_RLatLon0.03_PT043H.grib2 2026-05-01 18:27 1.4M
20260501T12Z_MSC_CAPS_WindDir_AGL-10m_RLatLon0.03_PT043H.grib2 2026-05-01 18:27 2.3M
20260501T12Z_MSC_CAPS_WindDir_AGL-120m_RLatLon0.03_PT043H.grib2 2026-05-01 18:27 1.2M
20260501T12Z_MSC_CAPS_WindDir_AGL-40m_RLatLon0.03_PT043H.grib2 2026-05-01 18:27 1.3M
20260501T12Z_MSC_CAPS_WindDir_AGL-80m_RLatLon0.03_PT043H.grib2 2026-05-01 18:27 1.2M
20260501T12Z_MSC_CAPS_WindDir_IsbL-0050_RLatLon0.03_PT043H.grib2 2026-05-01 18:27 1.0M
20260501T12Z_MSC_CAPS_WindDir_IsbL-0100_RLatLon0.03_PT043H.grib2 2026-05-01 18:27 1.1M
20260501T12Z_MSC_CAPS_WindDir_IsbL-0150_RLatLon0.03_PT043H.grib2 2026-05-01 18:27 1.0M
20260501T12Z_MSC_CAPS_WindDir_IsbL-0175_RLatLon0.03_PT043H.grib2 2026-05-01 18:27 1.1M
20260501T12Z_MSC_CAPS_WindDir_IsbL-0200_RLatLon0.03_PT043H.grib2 2026-05-01 18:27 1.1M
20260501T12Z_MSC_CAPS_WindDir_IsbL-0225_RLatLon0.03_PT043H.grib2 2026-05-01 18:27 1.1M
20260501T12Z_MSC_CAPS_WindDir_IsbL-0250_RLatLon0.03_PT043H.grib2 2026-05-01 18:27 1.1M
20260501T12Z_MSC_CAPS_WindDir_IsbL-0275_RLatLon0.03_PT043H.grib2 2026-05-01 18:27 1.1M
20260501T12Z_MSC_CAPS_WindDir_IsbL-0300_RLatLon0.03_PT043H.grib2 2026-05-01 18:27 1.0M
20260501T12Z_MSC_CAPS_WindDir_IsbL-0350_RLatLon0.03_PT043H.grib2 2026-05-01 18:27 1.1M
20260501T12Z_MSC_CAPS_WindDir_IsbL-0400_RLatLon0.03_PT043H.grib2 2026-05-01 18:27 1.1M
20260501T12Z_MSC_CAPS_WindDir_IsbL-0450_RLatLon0.03_PT043H.grib2 2026-05-01 18:27 1.2M
20260501T12Z_MSC_CAPS_WindDir_IsbL-0500_RLatLon0.03_PT043H.grib2 2026-05-01 18:27 1.2M
20260501T12Z_MSC_CAPS_WindDir_IsbL-0550_RLatLon0.03_PT043H.grib2 2026-05-01 18:27 1.2M
20260501T12Z_MSC_CAPS_WindDir_IsbL-0600_RLatLon0.03_PT043H.grib2 2026-05-01 18:27 1.3M
20260501T12Z_MSC_CAPS_WindDir_IsbL-0650_RLatLon0.03_PT043H.grib2 2026-05-01 18:27 1.3M
20260501T12Z_MSC_CAPS_WindDir_IsbL-0700_RLatLon0.03_PT043H.grib2 2026-05-01 18:27 1.4M
20260501T12Z_MSC_CAPS_WindDir_IsbL-0750_RLatLon0.03_PT043H.grib2 2026-05-01 18:27 1.5M
20260501T12Z_MSC_CAPS_WindDir_IsbL-0800_RLatLon0.03_PT043H.grib2 2026-05-01 18:27 1.6M
20260501T12Z_MSC_CAPS_WindDir_IsbL-0850_RLatLon0.03_PT043H.grib2 2026-05-01 18:27 1.8M
20260501T12Z_MSC_CAPS_WindDir_IsbL-0875_RLatLon0.03_PT043H.grib2 2026-05-01 18:27 1.8M
20260501T12Z_MSC_CAPS_WindDir_IsbL-0900_RLatLon0.03_PT043H.grib2 2026-05-01 18:27 1.9M
20260501T12Z_MSC_CAPS_WindDir_IsbL-0925_RLatLon0.03_PT043H.grib2 2026-05-01 18:27 1.9M
20260501T12Z_MSC_CAPS_WindDir_IsbL-0950_RLatLon0.03_PT043H.grib2 2026-05-01 18:27 2.0M
20260501T12Z_MSC_CAPS_WindDir_IsbL-0970_RLatLon0.03_PT043H.grib2 2026-05-01 18:27 2.1M
20260501T12Z_MSC_CAPS_WindDir_IsbL-0985_RLatLon0.03_PT043H.grib2 2026-05-01 18:27 2.1M
20260501T12Z_MSC_CAPS_WindDir_IsbL-1000_RLatLon0.03_PT043H.grib2 2026-05-01 18:27 2.2M
20260501T12Z_MSC_CAPS_WindDir_IsbL-1015_RLatLon0.03_PT043H.grib2 2026-05-01 18:27 2.3M
20260501T12Z_MSC_CAPS_WindGust-Max_AGL-10m_RLatLon0.03_PT043H.grib2 2026-05-01 18:27 2.5M
20260501T12Z_MSC_CAPS_WindGust-Min_AGL-10m_RLatLon0.03_PT043H.grib2 2026-05-01 18:27 2.4M
20260501T12Z_MSC_CAPS_WindGust_AGL-10m_RLatLon0.03_PT043H.grib2 2026-05-01 18:27 2.5M
20260501T12Z_MSC_CAPS_WindSpeed_AGL-10m_RLatLon0.03_PT043H.grib2 2026-05-01 18:27 2.1M
20260501T12Z_MSC_CAPS_WindSpeed_AGL-120m_RLatLon0.03_PT043H.grib2 2026-05-01 18:27 1.1M
20260501T12Z_MSC_CAPS_WindSpeed_AGL-40m_RLatLon0.03_PT043H.grib2 2026-05-01 18:27 1.2M
20260501T12Z_MSC_CAPS_WindSpeed_AGL-80m_RLatLon0.03_PT043H.grib2 2026-05-01 18:27 1.1M
20260501T12Z_MSC_CAPS_WindSpeed_IsbL-0050_RLatLon0.03_PT043H.grib2 2026-05-01 18:27 943K
20260501T12Z_MSC_CAPS_WindSpeed_IsbL-0100_RLatLon0.03_PT043H.grib2 2026-05-01 18:27 1.0M
20260501T12Z_MSC_CAPS_WindSpeed_IsbL-0150_RLatLon0.03_PT043H.grib2 2026-05-01 18:27 1.0M
20260501T12Z_MSC_CAPS_WindSpeed_IsbL-0175_RLatLon0.03_PT043H.grib2 2026-05-01 18:27 1.2M
20260501T12Z_MSC_CAPS_WindSpeed_IsbL-0200_RLatLon0.03_PT043H.grib2 2026-05-01 18:27 937K
20260501T12Z_MSC_CAPS_WindSpeed_IsbL-0225_RLatLon0.03_PT043H.grib2 2026-05-01 18:27 1.0M
20260501T12Z_MSC_CAPS_WindSpeed_IsbL-0250_RLatLon0.03_PT043H.grib2 2026-05-01 18:27 969K
20260501T12Z_MSC_CAPS_WindSpeed_IsbL-0275_RLatLon0.03_PT043H.grib2 2026-05-01 18:27 1.0M
20260501T12Z_MSC_CAPS_WindSpeed_IsbL-0300_RLatLon0.03_PT043H.grib2 2026-05-01 18:27 1.0M
20260501T12Z_MSC_CAPS_WindSpeed_IsbL-0350_RLatLon0.03_PT043H.grib2 2026-05-01 18:27 1.0M
20260501T12Z_MSC_CAPS_WindSpeed_IsbL-0400_RLatLon0.03_PT043H.grib2 2026-05-01 18:27 1.0M
20260501T12Z_MSC_CAPS_WindSpeed_IsbL-0450_RLatLon0.03_PT043H.grib2 2026-05-01 18:27 1.3M
20260501T12Z_MSC_CAPS_WindSpeed_IsbL-0500_RLatLon0.03_PT043H.grib2 2026-05-01 18:27 1.4M
20260501T12Z_MSC_CAPS_WindSpeed_IsbL-0550_RLatLon0.03_PT043H.grib2 2026-05-01 18:27 1.4M
20260501T12Z_MSC_CAPS_WindSpeed_IsbL-0600_RLatLon0.03_PT043H.grib2 2026-05-01 18:27 1.4M
20260501T12Z_MSC_CAPS_WindSpeed_IsbL-0650_RLatLon0.03_PT043H.grib2 2026-05-01 18:27 1.4M
20260501T12Z_MSC_CAPS_WindSpeed_IsbL-0700_RLatLon0.03_PT043H.grib2 2026-05-01 18:27 1.5M
20260501T12Z_MSC_CAPS_WindSpeed_IsbL-0750_RLatLon0.03_PT043H.grib2 2026-05-01 18:27 1.5M
20260501T12Z_MSC_CAPS_WindSpeed_IsbL-0800_RLatLon0.03_PT043H.grib2 2026-05-01 18:27 1.7M
20260501T12Z_MSC_CAPS_WindSpeed_IsbL-0850_RLatLon0.03_PT043H.grib2 2026-05-01 18:27 1.8M
20260501T12Z_MSC_CAPS_WindSpeed_IsbL-0875_RLatLon0.03_PT043H.grib2 2026-05-01 18:27 1.8M
20260501T12Z_MSC_CAPS_WindSpeed_IsbL-0900_RLatLon0.03_PT043H.grib2 2026-05-01 18:27 1.8M
20260501T12Z_MSC_CAPS_WindSpeed_IsbL-0925_RLatLon0.03_PT043H.grib2 2026-05-01 18:27 1.8M
20260501T12Z_MSC_CAPS_WindSpeed_IsbL-0950_RLatLon0.03_PT043H.grib2 2026-05-01 18:27 1.9M
20260501T12Z_MSC_CAPS_WindSpeed_IsbL-0970_RLatLon0.03_PT043H.grib2 2026-05-01 18:27 2.0M
20260501T12Z_MSC_CAPS_WindSpeed_IsbL-0985_RLatLon0.03_PT043H.grib2 2026-05-01 18:27 2.0M
20260501T12Z_MSC_CAPS_WindSpeed_IsbL-1000_RLatLon0.03_PT043H.grib2 2026-05-01 18:27 2.1M
20260501T12Z_MSC_CAPS_WindSpeed_IsbL-1015_RLatLon0.03_PT043H.grib2 2026-05-01 18:27 2.1M
20260501T12Z_MSC_CAPS_WindU_AGL-10m_RLatLon0.03_PT043H.grib2 2026-05-01 18:27 1.9M
20260501T12Z_MSC_CAPS_WindU_AGL-120m_RLatLon0.03_PT043H.grib2 2026-05-01 18:27 895K
20260501T12Z_MSC_CAPS_WindU_AGL-40m_RLatLon0.03_PT043H.grib2 2026-05-01 18:27 1.2M
20260501T12Z_MSC_CAPS_WindU_AGL-80m_RLatLon0.03_PT043H.grib2 2026-05-01 18:27 1.2M
20260501T12Z_MSC_CAPS_WindU_IsbL-0050_RLatLon0.03_PT043H.grib2 2026-05-01 18:27 949K
20260501T12Z_MSC_CAPS_WindU_IsbL-0100_RLatLon0.03_PT043H.grib2 2026-05-01 18:27 1.0M
20260501T12Z_MSC_CAPS_WindU_IsbL-0150_RLatLon0.03_PT043H.grib2 2026-05-01 18:27 716K
20260501T12Z_MSC_CAPS_WindU_IsbL-0175_RLatLon0.03_PT043H.grib2 2026-05-01 18:27 855K
20260501T12Z_MSC_CAPS_WindU_IsbL-0200_RLatLon0.03_PT043H.grib2 2026-05-01 18:27 865K
20260501T12Z_MSC_CAPS_WindU_IsbL-0225_RLatLon0.03_PT043H.grib2 2026-05-01 18:27 887K
20260501T12Z_MSC_CAPS_WindU_IsbL-0250_RLatLon0.03_PT043H.grib2 2026-05-01 18:27 909K
20260501T12Z_MSC_CAPS_WindU_IsbL-0275_RLatLon0.03_PT043H.grib2 2026-05-01 18:27 705K
20260501T12Z_MSC_CAPS_WindU_IsbL-0300_RLatLon0.03_PT043H.grib2 2026-05-01 18:27 712K
20260501T12Z_MSC_CAPS_WindU_IsbL-0350_RLatLon0.03_PT043H.grib2 2026-05-01 18:27 725K
20260501T12Z_MSC_CAPS_WindU_IsbL-0400_RLatLon0.03_PT043H.grib2 2026-05-01 18:27 947K
20260501T12Z_MSC_CAPS_WindU_IsbL-0450_RLatLon0.03_PT043H.grib2 2026-05-01 18:27 969K
20260501T12Z_MSC_CAPS_WindU_IsbL-0500_RLatLon0.03_PT043H.grib2 2026-05-01 18:27 1.0M
20260501T12Z_MSC_CAPS_WindU_IsbL-0550_RLatLon0.03_PT043H.grib2 2026-05-01 18:27 929K
20260501T12Z_MSC_CAPS_WindU_IsbL-0600_RLatLon0.03_PT043H.grib2 2026-05-01 18:27 960K
20260501T12Z_MSC_CAPS_WindU_IsbL-0650_RLatLon0.03_PT043H.grib2 2026-05-01 18:27 1.0M
20260501T12Z_MSC_CAPS_WindU_IsbL-0700_RLatLon0.03_PT043H.grib2 2026-05-01 18:27 1.0M
20260501T12Z_MSC_CAPS_WindU_IsbL-0750_RLatLon0.03_PT043H.grib2 2026-05-01 18:27 1.4M
20260501T12Z_MSC_CAPS_WindU_IsbL-0800_RLatLon0.03_PT043H.grib2 2026-05-01 18:27 1.5M
20260501T12Z_MSC_CAPS_WindU_IsbL-0850_RLatLon0.03_PT043H.grib2 2026-05-01 18:27 1.2M
20260501T12Z_MSC_CAPS_WindU_IsbL-0875_RLatLon0.03_PT043H.grib2 2026-05-01 18:27 1.3M
20260501T12Z_MSC_CAPS_WindU_IsbL-0900_RLatLon0.03_PT043H.grib2 2026-05-01 18:27 1.3M
20260501T12Z_MSC_CAPS_WindU_IsbL-0925_RLatLon0.03_PT043H.grib2 2026-05-01 18:27 1.3M
20260501T12Z_MSC_CAPS_WindU_IsbL-0950_RLatLon0.03_PT043H.grib2 2026-05-01 18:27 1.4M
20260501T12Z_MSC_CAPS_WindU_IsbL-0970_RLatLon0.03_PT043H.grib2 2026-05-01 18:27 1.4M
20260501T12Z_MSC_CAPS_WindU_IsbL-0985_RLatLon0.03_PT043H.grib2 2026-05-01 18:27 1.5M
20260501T12Z_MSC_CAPS_WindU_IsbL-1000_RLatLon0.03_PT043H.grib2 2026-05-01 18:27 1.9M
20260501T12Z_MSC_CAPS_WindU_IsbL-1015_RLatLon0.03_PT043H.grib2 2026-05-01 18:27 1.9M
20260501T12Z_MSC_CAPS_WindV_AGL-10m_RLatLon0.03_PT043H.grib2 2026-05-01 18:27 1.9M
20260501T12Z_MSC_CAPS_WindV_AGL-120m_RLatLon0.03_PT043H.grib2 2026-05-01 18:27 890K
20260501T12Z_MSC_CAPS_WindV_AGL-40m_RLatLon0.03_PT043H.grib2 2026-05-01 18:27 1.2M
20260501T12Z_MSC_CAPS_WindV_AGL-80m_RLatLon0.03_PT043H.grib2 2026-05-01 18:27 894K
20260501T12Z_MSC_CAPS_WindV_IsbL-0050_RLatLon0.03_PT043H.grib2 2026-05-01 18:27 771K
20260501T12Z_MSC_CAPS_WindV_IsbL-0100_RLatLon0.03_PT043H.grib2 2026-05-01 18:27 1.0M
20260501T12Z_MSC_CAPS_WindV_IsbL-0150_RLatLon0.03_PT043H.grib2 2026-05-01 18:27 720K
20260501T12Z_MSC_CAPS_WindV_IsbL-0175_RLatLon0.03_PT043H.grib2 2026-05-01 18:27 854K
20260501T12Z_MSC_CAPS_WindV_IsbL-0200_RLatLon0.03_PT043H.grib2 2026-05-01 18:27 870K
20260501T12Z_MSC_CAPS_WindV_IsbL-0225_RLatLon0.03_PT043H.grib2 2026-05-01 18:27 890K
20260501T12Z_MSC_CAPS_WindV_IsbL-0250_RLatLon0.03_PT043H.grib2 2026-05-01 18:27 908K
20260501T12Z_MSC_CAPS_WindV_IsbL-0275_RLatLon0.03_PT043H.grib2 2026-05-01 18:27 917K
20260501T12Z_MSC_CAPS_WindV_IsbL-0300_RLatLon0.03_PT043H.grib2 2026-05-01 18:27 714K
20260501T12Z_MSC_CAPS_WindV_IsbL-0350_RLatLon0.03_PT043H.grib2 2026-05-01 18:27 940K
20260501T12Z_MSC_CAPS_WindV_IsbL-0400_RLatLon0.03_PT043H.grib2 2026-05-01 18:27 949K
20260501T12Z_MSC_CAPS_WindV_IsbL-0450_RLatLon0.03_PT043H.grib2 2026-05-01 18:27 1.0M
20260501T12Z_MSC_CAPS_WindV_IsbL-0500_RLatLon0.03_PT043H.grib2 2026-05-01 18:27 1.0M
20260501T12Z_MSC_CAPS_WindV_IsbL-0550_RLatLon0.03_PT043H.grib2 2026-05-01 18:27 933K
20260501T12Z_MSC_CAPS_WindV_IsbL-0600_RLatLon0.03_PT043H.grib2 2026-05-01 18:27 1.2M
20260501T12Z_MSC_CAPS_WindV_IsbL-0650_RLatLon0.03_PT043H.grib2 2026-05-01 18:27 1.2M
20260501T12Z_MSC_CAPS_WindV_IsbL-0700_RLatLon0.03_PT043H.grib2 2026-05-01 18:27 1.3M
20260501T12Z_MSC_CAPS_WindV_IsbL-0750_RLatLon0.03_PT043H.grib2 2026-05-01 18:27 1.1M
20260501T12Z_MSC_CAPS_WindV_IsbL-0800_RLatLon0.03_PT043H.grib2 2026-05-01 18:27 1.1M
20260501T12Z_MSC_CAPS_WindV_IsbL-0850_RLatLon0.03_PT043H.grib2 2026-05-01 18:27 1.3M
20260501T12Z_MSC_CAPS_WindV_IsbL-0875_RLatLon0.03_PT043H.grib2 2026-05-01 18:27 1.2M
20260501T12Z_MSC_CAPS_WindV_IsbL-0900_RLatLon0.03_PT043H.grib2 2026-05-01 18:27 1.3M
20260501T12Z_MSC_CAPS_WindV_IsbL-0925_RLatLon0.03_PT043H.grib2 2026-05-01 18:27 1.3M
20260501T12Z_MSC_CAPS_WindV_IsbL-0950_RLatLon0.03_PT043H.grib2 2026-05-01 18:27 1.4M
20260501T12Z_MSC_CAPS_WindV_IsbL-0970_RLatLon0.03_PT043H.grib2 2026-05-01 18:27 1.4M
20260501T12Z_MSC_CAPS_WindV_IsbL-0985_RLatLon0.03_PT043H.grib2 2026-05-01 18:27 1.4M
20260501T12Z_MSC_CAPS_WindV_IsbL-1000_RLatLon0.03_PT043H.grib2 2026-05-01 18:27 1.8M
20260501T12Z_MSC_CAPS_WindV_IsbL-1015_RLatLon0.03_PT043H.grib2 2026-05-01 18:27 1.8M